START_TIME,STEP,MOV.,M34,t_acc.,L5,t_acc.,L18,t_acc.,L14,t_acc.
1979-07-04 15:00:25.490 ,1,0,0.,12.0,0.,12.0,0.,12.0,0.,12.0
1979-07-04 15:00:37.490 ,1,0,0.,12.0,0.,12.0,0.,12.0,0.,12.0
1979-07-04 15:00:49.490 ,2,1,0.,12.0,0.,12.0,0.,12.0,0.,12.0
1979-07-04 15:01:01.490 ,2,1,0.,12.0,0.,12.0,0.,12.0,0.,12.0
1979-07-04 15:01:13.490 ,2,0,0.,12.0,0.,12.0,0.,12.0,0.,12.0
1979-07-04 15:01:25.490 ,2,0,0.,12.0,0.,12.0,0.,12.0,0.,12.0
1979-07-04 15:01:37.490 ,3,1,0.,12.0,0.,12.0,0.,12.0,0.,12.0
1979-07-04 15:01:49.490 ,3,1,1.,12.0,0.,12.0,0.,12.0,0.,12.0
1979-07-04 15:02:01.490 ,3,0,0.,12.0,0.,12.0,0.,12.0,0.,12.0
1979-07-04 15:02:13.490 ,3,0,0.,12.0,0.,12.0,0.,12.0,0.,12.0
1979-07-04 15:02:25.490 ,4,1,0.,12.0,0.,12.0,0.,12.0,0.,12.0
1979-07-04 15:02:37.490 ,4,1,0.,12.0,0.,12.0,0.,12.0,0.,12.0
1979-07-04 15:02:49.490 ,4,0,0.,12.0,0.,12.0,0.,12.0,0.,12.0
1979-07-04 15:03:01.490 ,4,0,0.,12.0,0.,12.0,0.,12.0,0.,12.0
1979-07-04 15:03:13.490 ,5,1,0.,12.0,0.,12.0,0.,12.0,0.,12.0
1979-07-04 15:03:25.490 ,5,1,0.,12.0,0.,12.0,0.,12.0,0.,12.0
1979-07-04 15:03:37.490 ,5,0,0.,12.0,0.,12.0,0.,12.0,0.,12.0
1979-07-04 15:03:49.490 ,5,0,0.,12.0,0.,12.0,0.,12.0,0.,12.0
1979-07-04 15:04:01.490 ,6,1,0.,12.0,0.,12.0,0.,12.0,0.,12.0
1979-07-04 15:04:13.490 ,6,1,0.,12.0,0.,12.0,0.,12.0,0.,12.0
1979-07-04 15:04:25.490 ,6,0,0.,12.0,0.,12.0,0.,12.0,0.,12.0
1979-07-04 15:04:37.490 ,6,0,0.,12.0,0.,12.0,0.,12.0,0.,12.0
1979-07-04 15:04:49.490 ,7,1,0.,12.0,0.,12.0,0.,12.0,0.,12.0
1979-07-04 15:05:01.490 ,7,1,0.,12.0,0.,12.0,0.,12.0,0.,12.0
1979-07-04 15:05:13.490 ,7,0,0.,12.0,0.,12.0,0.,12.0,0.,12.0
1979-07-04 15:05:25.490 ,7,0,0.,12.0,0.,12.0,0.,12.0,0.,12.0
1979-07-04 15:05:37.490 ,7,1,0.,12.0,0.,12.0,0.,12.0,0.,12.0
1979-07-04 15:05:49.490 ,7,1,0.,12.0,0.,12.0,0.,12.0,0.,12.0
1979-07-04 15:06:01.490 ,7,0,0.,12.0,0.,12.0,0.,12.0,0.,12.0
1979-07-04 15:06:13.490 ,7,0,0.,12.0,0.,12.0,0.,12.0,0.,12.0
1979-07-04 15:06:25.490 ,6,1,0.,12.0,0.,12.0,0.,12.0,0.,12.0
1979-07-04 15:06:37.490 ,6,1,0.,12.0,0.,12.0,0.,12.0,0.,12.0
1979-07-04 15:06:49.490 ,6,0,0.,12.0,0.,12.0,0.,12.0,0.,12.0
1979-07-04 15:07:01.490 ,6,0,0.,12.0,0.,12.0,0.,12.0,0.,12.0
1979-07-04 15:07:13.490 ,5,1,0.,12.0,0.,12.0,0.,12.0,0.,12.0
1979-07-04 15:07:25.490 ,5,1,0.,12.0,0.,12.0,0.,12.0,0.,12.0
1979-07-04 15:07:37.490 ,5,0,0.,12.0,0.,12.0,0.,12.0,0.,12.0
1979-07-04 15:07:49.490 ,5,0,0.,12.0,0.,12.0,0.,12.0,0.,12.0
1979-07-04 15:08:01.490 ,4,1,0.,12.0,0.,12.0,0.,12.0,0.,12.0
1979-07-04 15:08:13.490 ,4,1,0.,12.0,0.,12.0,0.,12.0,0.,12.0
1979-07-04 15:08:25.490 ,4,0,0.,12.0,0.,12.0,0.,12.0,0.,12.0
1979-07-04 15:08:37.490 ,4,0,1.,12.0,0.,12.0,0.,12.0,0.,12.0
1979-07-04 15:08:49.490 ,3,1,0.,12.0,0.,12.0,0.,12.0,0.,12.0
1979-07-04 15:09:01.490 ,3,1,0.,12.0,0.,12.0,0.,12.0,0.,12.0
1979-07-04 15:09:13.490 ,3,0,0.,12.0,0.,12.0,0.,12.0,0.,12.0
1979-07-04 15:09:25.490 ,3,0,0.,12.0,0.,12.0,0.,12.0,0.,12.0
1979-07-04 15:09:37.490 ,2,1,0.,12.0,0.,12.0,0.,12.0,0.,12.0
1979-07-04 15:09:49.490 ,2,1,0.,12.0,0.,12.0,0.,12.0,0.,12.0
1979-07-04 15:10:01.490 ,2,0,0.,12.0,0.,12.0,0.,12.0,0.,12.0
1979-07-04 15:10:13.490 ,2,0,0.,12.0,0.,12.0,0.,12.0,0.,12.0
1979-07-04 15:10:25.490 ,1,1,0.,12.0,0.,12.0,0.,12.0,0.,12.0
1979-07-04 15:10:37.490 ,1,1,0.,12.0,0.,12.0,0.,12.0,0.,12.0
1979-07-04 15:10:49.490 ,1,0,0.,12.0,0.,12.0,0.,12.0,0.,12.0
1979-07-04 15:11:01.490 ,1,0,0.,12.0,0.,12.0,0.,12.0,0.,12.0
1979-07-04 15:11:13.490 ,0,1,0.,12.0,0.,12.0,0.,12.0,0.,12.0
1979-07-04 15:11:25.490 ,0,1,1.,12.0,0.,12.0,0.,12.0,0.,12.0
1979-07-04 15:11:37.490 ,0,0,0.,12.0,0.,12.0,0.,12.0,0.,12.0
1979-07-04 15:11:49.490 ,0,0,0.,12.0,0.,12.0,0.,12.0,0.,12.0
1979-07-04 15:12:01.490 ,0,1,0.,12.0,0.,12.0,0.,12.0,0.,12.0
1979-07-04 15:12:13.490 ,0,1,0.,12.0,0.,12.0,0.,12.0,0.,12.0
1979-07-04 15:12:25.490 ,0,0,0.,12.0,0.,12.0,0.,12.0,0.,12.0
1979-07-04 15:12:37.490 ,0,0,0.,12.0,0.,12.0,0.,12.0,0.,12.0
1979-07-04 15:12:49.490 ,1,1,0.,12.0,0.,12.0,0.,12.0,0.,12.0
1979-07-04 15:13:01.490 ,1,1,0.,12.0,0.,12.0,0.,12.0,0.,12.0
1979-07-04 15:13:13.490 ,1,0,0.,12.0,0.,12.0,0.,12.0,0.,12.0
1979-07-04 15:13:25.490 ,1,0,0.,12.0,0.,12.0,0.,12.0,0.,12.0
1979-07-04 15:13:37.490 ,2,1,0.,12.0,0.,12.0,0.,12.0,0.,12.0
1979-07-04 15:13:49.490 ,2,1,0.,12.0,0.,12.0,0.,12.0,0.,12.0
1979-07-04 15:14:01.490 ,2,0,0.,12.0,0.,12.0,0.,12.0,0.,12.0
1979-07-04 15:14:13.490 ,2,0,0.,12.0,0.,12.0,0.,12.0,0.,12.0
1979-07-04 15:14:25.490 ,3,1,0.,12.0,0.,12.0,0.,12.0,0.,12.0
1979-07-04 15:14:37.490 ,3,1,0.,12.0,0.,12.0,0.,12.0,0.,12.0
1979-07-04 15:14:49.490 ,3,0,0.,12.0,0.,12.0,0.,12.0,0.,12.0
1979-07-04 15:15:01.490 ,3,0,0.,12.0,0.,12.0,0.,12.0,0.,12.0
1979-07-04 15:15:13.490 ,4,1,0.,12.0,0.,12.0,0.,12.0,0.,12.0
1979-07-04 15:15:25.490 ,4,1,0.,12.0,0.,12.0,0.,12.0,0.,12.0
1979-07-04 15:15:37.490 ,4,0,0.,12.0,0.,12.0,0.,12.0,0.,12.0
1979-07-04 15:15:49.490 ,4,0,0.,12.0,0.,12.0,0.,12.0,0.,12.0
1979-07-04 15:16:01.490 ,5,1,0.,12.0,0.,12.0,0.,12.0,0.,12.0
1979-07-04 15:16:13.490 ,5,1,0.,12.0,0.,12.0,0.,12.0,0.,12.0
1979-07-04 15:16:25.490 ,5,0,0.,12.0,0.,12.0,0.,12.0,0.,12.0
1979-07-04 15:16:37.490 ,5,0,0.,12.0,0.,12.0,0.,12.0,0.,12.0
1979-07-04 15:16:49.490 ,6,1,0.,12.0,0.,12.0,0.,12.0,0.,12.0
1979-07-04 15:17:01.490 ,6,1,0.,12.0,0.,12.0,0.,12.0,0.,12.0
1979-07-04 15:17:13.490 ,6,0,0.,12.0,0.,12.0,0.,12.0,0.,12.0
1979-07-04 15:17:25.490 ,6,0,0.,12.0,0.,12.0,0.,12.0,0.,12.0
1979-07-04 15:17:37.490 ,7,1,0.,12.0,0.,12.0,0.,12.0,0.,12.0
1979-07-04 15:17:49.490 ,7,1,0.,12.0,0.,12.0,0.,12.0,0.,12.0
1979-07-04 15:18:01.490 ,7,0,0.,12.0,0.,12.0,0.,12.0,0.,12.0
1979-07-04 15:18:13.490 ,7,0,0.,12.0,0.,12.0,0.,12.0,0.,12.0
1979-07-04 15:18:25.490 ,7,1,0.,12.0,0.,12.0,0.,12.0,0.,12.0
1979-07-04 15:18:37.490 ,7,1,0.,12.0,0.,12.0,0.,12.0,0.,12.0
1979-07-04 15:18:49.490 ,7,0,0.,12.0,0.,12.0,0.,12.0,0.,12.0
1979-07-04 15:19:01.490 ,7,0,0.,12.0,0.,12.0,0.,12.0,0.,12.0
1979-07-04 15:19:13.490 ,6,1,0.,12.0,0.,12.0,0.,12.0,0.,12.0
1979-07-04 15:19:25.490 ,6,1,0.,12.0,0.,12.0,0.,12.0,0.,12.0
1979-07-04 15:19:37.490 ,6,0,0.,12.0,0.,12.0,0.,12.0,0.,12.0
1979-07-04 15:19:49.490 ,6,0,0.,12.0,0.,12.0,0.,12.0,0.,12.0
1979-07-04 15:20:01.490 ,5,1,0.,12.0,0.,12.0,0.,12.0,0.,12.0
1979-07-04 15:20:13.490 ,5,1,0.,12.0,0.,12.0,0.,12.0,0.,12.0
1979-07-04 15:20:25.490 ,5,0,0.,12.0,0.,12.0,0.,12.0,0.,12.0
1979-07-04 15:20:37.490 ,5,0,0.,12.0,0.,12.0,0.,12.0,0.,12.0
1979-07-04 15:20:49.490 ,4,1,0.,12.0,0.,12.0,0.,12.0,0.,12.0
1979-07-04 15:21:01.490 ,4,1,0.,12.0,0.,12.0,0.,12.0,0.,12.0
1979-07-04 15:21:13.490 ,4,0,0.,12.0,0.,12.0,0.,12.0,0.,12.0
1979-07-04 15:21:25.490 ,4,0,0.,12.0,0.,12.0,0.,12.0,0.,12.0
1979-07-04 15:21:37.490 ,3,1,0.,12.0,0.,12.0,0.,12.0,0.,12.0
1979-07-04 15:21:49.490 ,3,1,0.,12.0,0.,12.0,0.,12.0,0.,12.0
1979-07-04 15:22:01.490 ,3,0,0.,12.0,0.,12.0,0.,12.0,0.,12.0
1979-07-04 15:22:13.490 ,3,0,0.,12.0,0.,12.0,0.,12.0,0.,12.0
1979-07-04 15:22:25.490 ,2,1,0.,12.0,0.,12.0,0.,12.0,0.,12.0
1979-07-04 15:22:37.490 ,2,1,0.,12.0,0.,12.0,0.,12.0,0.,12.0
1979-07-04 15:22:49.490 ,2,0,0.,12.0,0.,12.0,0.,12.0,0.,12.0
1979-07-04 15:23:01.490 ,2,0,0.,12.0,0.,12.0,0.,12.0,0.,12.0
1979-07-04 15:23:13.490 ,1,1,0.,12.0,0.,12.0,0.,12.0,0.,12.0
1979-07-04 15:23:25.490 ,1,1,0.,12.0,0.,12.0,0.,12.0,0.,12.0
1979-07-04 15:23:37.490 ,1,0,0.,12.0,0.,12.0,0.,12.0,0.,12.0
1979-07-04 15:23:49.490 ,1,0,0.,12.0,0.,12.0,0.,12.0,0.,12.0
1979-07-04 15:24:01.490 ,0,1,0.,12.0,0.,12.0,0.,12.0,0.,12.0
1979-07-04 15:24:13.490 ,0,1,0.,12.0,0.,12.0,0.,12.0,0.,12.0
1979-07-04 15:24:25.490 ,0,0,0.,12.0,0.,12.0,0.,12.0,0.,12.0
1979-07-04 15:24:37.490 ,0,0,0.,12.0,0.,12.0,0.,12.0,0.,12.0
1979-07-04 15:24:49.490 ,0,1,0.,12.0,0.,12.0,0.,12.0,0.,12.0
1979-07-04 15:25:01.490 ,0,1,0.,12.0,0.,12.0,0.,12.0,0.,12.0
1979-07-04 15:25:13.490 ,0,0,0.,12.0,0.,12.0,0.,12.0,0.,12.0
1979-07-04 15:25:25.490 ,0,0,0.,12.0,0.,12.0,0.,12.0,0.,12.0
1979-07-04 15:25:37.490 ,1,1,0.,12.0,0.,12.0,0.,12.0,0.,12.0
1979-07-04 15:25:49.490 ,1,1,0.,12.0,0.,12.0,0.,12.0,0.,12.0
1979-07-04 15:26:01.490 ,1,0,0.,12.0,0.,12.0,0.,12.0,0.,12.0
1979-07-04 15:26:13.490 ,1,0,0.,12.0,0.,12.0,0.,12.0,0.,12.0
1979-07-04 15:26:25.490 ,2,1,0.,12.0,0.,12.0,0.,12.0,0.,12.0
1979-07-04 15:26:37.490 ,2,1,0.,12.0,0.,12.0,0.,12.0,0.,12.0
1979-07-04 15:26:49.490 ,2,0,0.,12.0,0.,12.0,0.,12.0,0.,12.0
1979-07-04 15:27:01.490 ,2,0,0.,12.0,0.,12.0,0.,12.0,0.,12.0
1979-07-04 15:27:13.490 ,3,1,0.,12.0,0.,12.0,0.,12.0,0.,12.0
1979-07-04 15:27:25.490 ,3,1,0.,12.0,0.,12.0,0.,12.0,0.,12.0
1979-07-04 15:27:37.490 ,3,0,0.,12.0,0.,12.0,0.,12.0,0.,12.0
1979-07-04 15:27:49.490 ,3,0,0.,12.0,0.,12.0,0.,12.0,0.,12.0
1979-07-04 15:28:01.490 ,4,1,0.,12.0,0.,12.0,0.,12.0,0.,12.0
1979-07-04 15:28:13.490 ,4,1,0.,12.0,0.,12.0,0.,12.0,0.,12.0
1979-07-04 15:28:25.490 ,4,0,1.,12.0,0.,12.0,0.,12.0,0.,12.0
1979-07-04 15:28:37.490 ,4,0,0.,12.0,0.,12.0,0.,12.0,0.,12.0
1979-07-04 15:28:49.490 ,5,1,0.,12.0,0.,12.0,0.,12.0,0.,12.0
1979-07-04 15:29:01.490 ,5,1,0.,12.0,0.,12.0,0.,12.0,0.,12.0
1979-07-04 15:29:13.490 ,5,0,0.,12.0,0.,12.0,0.,12.0,0.,12.0
1979-07-04 15:29:25.490 ,5,0,0.,12.0,0.,12.0,0.,12.0,0.,12.0
1979-07-04 15:29:37.490 ,6,1,0.,12.0,0.,12.0,0.,12.0,0.,12.0
1979-07-04 15:29:49.490 ,6,1,0.,12.0,0.,12.0,0.,12.0,0.,12.0
1979-07-04 15:30:01.490 ,6,0,0.,12.0,0.,12.0,0.,12.0,0.,12.0
1979-07-04 15:30:13.490 ,6,0,0.,12.0,0.,12.0,0.,12.0,0.,12.0
1979-07-04 15:30:25.490 ,7,0,0.,12.0,0.,12.0,0.,12.0,0.,12.0
1979-07-04 15:30:37.490 ,7,0,0.,12.0,0.,12.0,0.,12.0,0.,12.0
1979-07-04 15:30:49.490 ,7,0,0.,12.0,0.,12.0,0.,12.0,0.,12.0
1979-07-04 15:31:01.490 ,7,0,0.,12.0,0.,12.0,0.,12.0,0.,12.0
1979-07-04 15:31:13.490 ,4,1,0.,12.0,0.,12.0,0.,12.0,0.,12.0
1979-07-04 15:31:25.490 ,4,1,0.,12.0,0.,12.0,0.,12.0,0.,12.0
1979-07-04 15:31:37.490 ,0,1,0.,12.0,0.,12.0,0.,12.0,0.,12.0
1979-07-04 15:31:49.490 ,0,1,0.,12.0,0.,12.0,0.,12.0,0.,12.0
1979-07-04 15:32:01.490 ,3,1,0.,12.0,0.,12.0,0.,12.0,0.,12.0
1979-07-04 15:32:13.490 ,3,1,0.,12.0,0.,12.0,0.,12.0,0.,12.0
1979-07-04 15:32:25.490 ,7,1,0.,12.0,0.,12.0,0.,12.0,0.,12.0
1979-07-04 15:32:37.490 ,7,1,0.,12.0,0.,12.0,0.,12.0,0.,12.0
1979-07-04 15:32:49.490 ,4,1,0.,12.0,0.,12.0,0.,12.0,0.,12.0
1979-07-04 15:33:01.490 ,4,1,0.,12.0,0.,12.0,0.,12.0,0.,12.0
1979-07-04 15:33:13.490 ,0,1,0.,12.0,0.,12.0,0.,12.0,0.,12.0
1979-07-04 15:33:25.490 ,0,1,0.,12.0,0.,12.0,0.,12.0,0.,12.0
1979-07-04 15:33:37.490 ,3,1,0.,12.0,0.,12.0,0.,12.0,0.,12.0
1979-07-04 15:33:49.490 ,3,1,0.,12.0,0.,12.0,0.,12.0,0.,12.0
1979-07-04 15:34:01.490 ,7,1,0.,12.0,0.,12.0,0.,12.0,0.,12.0
1979-07-04 15:34:13.490 ,7,1,0.,12.0,0.,12.0,0.,12.0,0.,12.0
1979-07-04 15:34:25.490 ,4,1,0.,12.0,0.,12.0,0.,12.0,0.,12.0
1979-07-04 15:34:37.490 ,4,1,0.,12.0,0.,12.0,0.,12.0,0.,12.0
1979-07-04 15:34:49.490 ,0,1,0.,12.0,0.,12.0,0.,12.0,0.,12.0
1979-07-04 15:35:01.490 ,0,1,0.,12.0,0.,12.0,0.,12.0,0.,12.0
1979-07-04 15:35:13.490 ,3,1,0.,12.0,0.,12.0,0.,12.0,0.,12.0
1979-07-04 15:35:25.490 ,3,1,0.,12.0,0.,12.0,0.,12.0,0.,12.0
1979-07-04 15:35:37.490 ,7,1,0.,12.0,0.,12.0,0.,12.0,0.,12.0
1979-07-04 15:35:49.490 ,7,1,0.,12.0,0.,12.0,0.,12.0,0.,12.0
1979-07-04 15:36:01.490 ,4,1,0.,12.0,0.,12.0,0.,12.0,0.,12.0
1979-07-04 15:36:13.490 ,4,1,0.,12.0,0.,12.0,0.,12.0,0.,12.0
1979-07-04 15:36:25.490 ,0,1,0.,12.0,0.,12.0,0.,12.0,0.,12.0
1979-07-04 15:36:37.490 ,0,1,0.,12.0,0.,12.0,0.,12.0,0.,12.0
1979-07-04 15:36:49.490 ,3,1,0.,12.0,0.,12.0,0.,12.0,0.,12.0
1979-07-04 15:37:01.490 ,3,1,0.,12.0,0.,12.0,0.,12.0,0.,12.0
1979-07-04 15:37:13.490 ,7,1,0.,12.0,0.,12.0,0.,12.0,0.,12.0
1979-07-04 15:37:25.490 ,7,1,0.,12.0,0.,12.0,0.,12.0,0.,12.0
1979-07-04 15:37:37.490 ,4,1,0.,12.0,0.,12.0,0.,12.0,0.,12.0
1979-07-04 15:37:49.490 ,4,1,0.,12.0,0.,12.0,0.,12.0,0.,12.0
1979-07-04 15:38:01.490 ,0,1,0.,12.0,0.,12.0,0.,12.0,0.,12.0
1979-07-04 15:38:13.490 ,0,1,0.,12.0,0.,12.0,0.,12.0,0.,12.0
1979-07-04 15:38:25.490 ,3,1,0.,12.0,0.,12.0,0.,12.0,0.,12.0
1979-07-04 15:38:37.490 ,3,1,0.,12.0,0.,12.0,0.,12.0,0.,12.0
1979-07-04 15:38:49.490 ,7,1,0.,12.0,0.,12.0,0.,12.0,0.,12.0
1979-07-04 15:39:01.490 ,7,1,0.,12.0,0.,12.0,0.,12.0,0.,12.0
1979-07-04 15:39:13.490 ,4,1,0.,12.0,0.,12.0,0.,12.0,0.,12.0
1979-07-04 15:39:25.490 ,4,1,0.,12.0,0.,12.0,0.,12.0,0.,12.0
1979-07-04 15:39:37.490 ,0,1,0.,12.0,0.,12.0,0.,12.0,0.,12.0
1979-07-04 15:39:49.490 ,0,1,0.,12.0,0.,12.0,0.,12.0,0.,12.0
1979-07-04 15:40:01.490 ,3,1,0.,12.0,0.,12.0,0.,12.0,0.,12.0
1979-07-04 15:40:13.490 ,3,1,0.,12.0,0.,12.0,0.,12.0,0.,12.0
1979-07-04 15:40:25.490 ,7,1,1.,12.0,0.,12.0,0.,12.0,0.,12.0
1979-07-04 15:40:37.490 ,7,1,0.,12.0,0.,12.0,0.,12.0,0.,12.0
1979-07-04 15:40:49.490 ,4,1,0.,12.0,0.,12.0,0.,12.0,0.,12.0
1979-07-04 15:41:01.490 ,4,1,1.,12.0,0.,12.0,0.,12.0,0.,12.0
1979-07-04 15:41:13.490 ,0,0,0.,12.0,0.,12.0,0.,12.0,0.,12.0
1979-07-04 15:41:25.490 ,0,0,0.,12.0,0.,12.0,0.,12.0,0.,12.0
1979-07-04 15:41:42.890 ,0,0,,0,,0,,0,,0
1979-07-04 15:41:54.890 ,0,0,0.,12.0,0.,12.0,0.,12.0,0.,12.0
1979-07-04 15:42:01.490 ,0,0,0.,12.0,0.,12.0,0.,12.0,0.,12.0
1979-07-04 15:42:13.490 ,0,0,0.,12.0,0.,12.0,0.,12.0,0.,12.0
1979-07-04 15:42:25.490 ,5,1,0.,12.0,0.,12.0,0.,12.0,0.,12.0
1979-07-04 15:42:37.490 ,5,1,0.,12.0,0.,12.0,0.,12.0,0.,12.0
1979-07-04 15:42:49.490 ,5,0,0.,12.0,0.,12.0,0.,12.0,0.,12.0
1979-07-04 15:43:01.490 ,5,0,0.,12.0,0.,12.0,0.,12.0,0.,12.0
1979-07-04 15:43:13.490 ,4,1,0.,12.0,0.,12.0,0.,12.0,0.,12.0
1979-07-04 15:43:25.490 ,4,1,0.,12.0,0.,12.0,0.,12.0,0.,12.0
1979-07-04 15:43:37.490 ,4,0,0.,12.0,0.,12.0,0.,12.0,0.,12.0
1979-07-04 15:43:49.490 ,4,0,0.,12.0,0.,12.0,0.,12.0,0.,12.0
1979-07-04 15:44:01.490 ,3,1,0.,12.0,0.,12.0,0.,12.0,0.,12.0
1979-07-04 15:44:13.490 ,3,1,0.,12.0,0.,12.0,0.,12.0,0.,12.0
1979-07-04 15:44:25.490 ,3,0,0.,12.0,0.,12.0,0.,12.0,0.,12.0
1979-07-04 15:44:37.490 ,3,0,0.,12.0,0.,12.0,0.,12.0,0.,12.0
1979-07-04 15:44:49.490 ,2,1,0.,12.0,0.,12.0,0.,12.0,0.,12.0
1979-07-04 15:45:01.490 ,2,1,0.,12.0,0.,12.0,0.,12.0,0.,12.0
1979-07-04 15:45:13.490 ,2,0,0.,12.0,0.,12.0,0.,12.0,0.,12.0
1979-07-04 15:45:25.490 ,2,0,0.,12.0,0.,12.0,0.,12.0,0.,12.0
1979-07-04 15:45:37.490 ,1,1,0.,12.0,0.,12.0,0.,12.0,0.,12.0
1979-07-04 15:45:49.490 ,1,1,0.,12.0,0.,12.0,0.,12.0,0.,12.0
1979-07-04 15:46:01.490 ,1,0,0.,12.0,0.,12.0,0.,12.0,0.,12.0
1979-07-04 15:46:13.490 ,1,0,0.,12.0,0.,12.0,0.,12.0,0.,12.0
1979-07-04 15:46:25.490 ,0,1,0.,12.0,0.,12.0,0.,12.0,0.,12.0
1979-07-04 15:46:37.490 ,0,1,0.,12.0,0.,12.0,0.,12.0,0.,12.0
1979-07-04 15:46:49.490 ,0,0,0.,12.0,0.,12.0,0.,12.0,1.,12.0
1979-07-04 15:47:01.490 ,0,0,0.,12.0,0.,12.0,0.,12.0,0.,12.0
1979-07-04 15:47:13.490 ,0,1,0.,12.0,0.,12.0,0.,12.0,0.,12.0
1979-07-04 15:47:25.490 ,0,1,0.,12.0,0.,12.0,0.,12.0,0.,12.0
1979-07-04 15:47:37.490 ,0,0,0.,12.0,0.,12.0,0.,12.0,0.,12.0
1979-07-04 15:47:49.490 ,0,0,1.,12.0,0.,12.0,0.,12.0,0.,12.0
1979-07-04 15:48:01.490 ,1,1,0.,12.0,0.,12.0,0.,12.0,0.,12.0
1979-07-04 15:48:13.490 ,1,1,0.,12.0,0.,12.0,0.,12.0,0.,12.0
1979-07-04 15:48:25.490 ,1,0,0.,12.0,0.,12.0,0.,12.0,0.,12.0
1979-07-04 15:48:37.490 ,1,0,0.,12.0,0.,12.0,0.,12.0,0.,12.0
1979-07-04 15:48:49.490 ,2,1,0.,12.0,0.,12.0,0.,12.0,0.,12.0
1979-07-04 15:49:01.490 ,2,1,0.,12.0,0.,12.0,0.,12.0,0.,12.0
1979-07-04 15:49:13.490 ,2,0,0.,12.0,0.,12.0,0.,12.0,0.,12.0
1979-07-04 15:49:25.490 ,2,0,0.,12.0,0.,12.0,0.,12.0,0.,12.0
1979-07-04 15:49:37.490 ,3,1,0.,12.0,0.,12.0,0.,12.0,0.,12.0
1979-07-04 15:49:49.490 ,3,1,0.,12.0,0.,12.0,0.,12.0,0.,12.0
1979-07-04 15:50:01.490 ,3,0,0.,12.0,0.,12.0,0.,12.0,0.,12.0
1979-07-04 15:50:13.490 ,3,0,0.,12.0,0.,12.0,0.,12.0,0.,12.0
1979-07-04 15:50:25.490 ,4,1,0.,12.0,0.,12.0,0.,12.0,0.,12.0
1979-07-04 15:50:37.490 ,4,1,0.,12.0,0.,12.0,0.,12.0,1.,12.0
1979-07-04 15:50:49.490 ,4,0,0.,12.0,0.,12.0,0.,12.0,0.,12.0
1979-07-04 15:51:01.490 ,4,0,0.,12.0,0.,12.0,0.,12.0,0.,12.0
1979-07-04 15:51:13.490 ,5,1,0.,12.0,0.,12.0,0.,12.0,0.,12.0
1979-07-04 15:51:25.490 ,5,1,0.,12.0,0.,12.0,0.,12.0,0.,12.0
1979-07-04 15:51:37.490 ,5,0,0.,12.0,0.,12.0,0.,12.0,0.,12.0
1979-07-04 15:51:49.490 ,5,0,0.,12.0,0.,12.0,0.,12.0,0.,12.0
1979-07-04 15:52:01.490 ,6,1,0.,12.0,0.,12.0,0.,12.0,0.,12.0
1979-07-04 15:52:13.490 ,6,1,0.,12.0,0.,12.0,0.,12.0,0.,12.0
1979-07-04 15:52:25.490 ,6,0,0.,12.0,0.,12.0,0.,12.0,0.,12.0
1979-07-04 15:52:37.490 ,6,0,0.,12.0,0.,12.0,0.,12.0,0.,12.0
1979-07-04 15:52:49.490 ,7,1,0.,12.0,0.,12.0,0.,12.0,0.,12.0
1979-07-04 15:53:01.490 ,7,1,0.,12.0,0.,12.0,0.,12.0,0.,12.0
1979-07-04 15:53:13.490 ,7,0,0.,12.0,0.,12.0,0.,12.0,0.,12.0
1979-07-04 15:53:25.490 ,7,0,0.,12.0,0.,12.0,0.,12.0,0.,12.0
1979-07-04 15:53:37.490 ,7,1,0.,12.0,0.,12.0,0.,12.0,0.,12.0
1979-07-04 15:53:49.490 ,7,1,0.,12.0,0.,12.0,0.,12.0,0.,12.0
1979-07-04 15:54:01.490 ,7,0,0.,12.0,0.,12.0,0.,12.0,0.,12.0
1979-07-04 15:54:13.490 ,7,0,0.,12.0,0.,12.0,0.,12.0,0.,12.0
1979-07-04 15:54:25.490 ,6,1,0.,12.0,0.,12.0,0.,12.0,0.,12.0
1979-07-04 15:54:37.490 ,6,1,0.,12.0,0.,12.0,0.,12.0,0.,12.0
1979-07-04 15:54:49.490 ,6,0,0.,12.0,0.,12.0,0.,12.0,0.,12.0
1979-07-04 15:55:01.490 ,6,0,0.,12.0,0.,12.0,0.,12.0,0.,12.0
1979-07-04 15:55:13.490 ,5,1,0.,12.0,0.,12.0,0.,12.0,0.,12.0
1979-07-04 15:55:25.490 ,5,1,0.,12.0,0.,12.0,0.,12.0,0.,12.0
1979-07-04 15:55:37.490 ,5,0,0.,12.0,0.,12.0,0.,12.0,0.,12.0
1979-07-04 15:55:49.490 ,5,0,0.,12.0,0.,12.0,0.,12.0,0.,12.0
1979-07-04 15:56:01.490 ,4,1,0.,12.0,0.,12.0,0.,12.0,0.,12.0
1979-07-04 15:56:13.490 ,4,1,0.,12.0,0.,12.0,0.,12.0,0.,12.0
1979-07-04 15:56:25.490 ,4,0,0.,12.0,0.,12.0,0.,12.0,0.,12.0
1979-07-04 15:56:37.490 ,4,0,0.,12.0,0.,12.0,0.,12.0,0.,12.0
1979-07-04 15:56:49.490 ,3,1,0.,12.0,0.,12.0,0.,12.0,0.,12.0
1979-07-04 15:57:01.490 ,3,1,0.,12.0,0.,12.0,0.,12.0,0.,12.0
1979-07-04 15:57:13.490 ,3,0,0.,12.0,0.,12.0,0.,12.0,0.,12.0
1979-07-04 15:57:25.490 ,3,0,0.,12.0,0.,12.0,0.,12.0,0.,12.0
1979-07-04 15:57:37.490 ,2,1,0.,12.0,0.,12.0,0.,12.0,0.,12.0
1979-07-04 15:57:49.490 ,2,1,0.,12.0,0.,12.0,0.,12.0,0.,12.0
1979-07-04 15:58:01.490 ,2,0,0.,12.0,0.,12.0,0.,12.0,0.,12.0
1979-07-04 15:58:13.490 ,2,0,0.,12.0,0.,12.0,0.,12.0,0.,12.0
1979-07-04 15:58:25.490 ,1,1,0.,12.0,0.,12.0,0.,12.0,0.,12.0
1979-07-04 15:58:37.490 ,1,1,0.,12.0,0.,12.0,0.,12.0,0.,12.0
1979-07-04 15:58:49.490 ,1,0,0.,12.0,0.,12.0,0.,12.0,0.,12.0
1979-07-04 15:59:01.490 ,1,0,0.,12.0,0.,12.0,0.,12.0,0.,12.0
1979-07-04 15:59:13.490 ,0,1,0.,12.0,0.,12.0,0.,12.0,0.,12.0
1979-07-04 15:59:25.490 ,0,1,0.,12.0,0.,12.0,0.,12.0,0.,12.0
1979-07-04 15:59:37.490 ,0,0,0.,12.0,0.,12.0,0.,12.0,0.,12.0
1979-07-04 15:59:49.490 ,0,0,0.,12.0,0.,12.0,0.,12.0,0.,12.0
1979-07-04 16:00:01.490 ,0,1,0.,12.0,0.,12.0,0.,12.0,0.,12.0
1979-07-04 16:00:13.490 ,0,1,0.,12.0,0.,12.0,0.,12.0,0.,12.0
1979-07-04 16:00:25.490 ,0,0,0.,12.0,0.,12.0,0.,12.0,0.,12.0
1979-07-04 16:00:37.490 ,0,0,0.,12.0,0.,12.0,0.,12.0,0.,12.0
1979-07-04 16:00:49.490 ,1,1,0.,12.0,0.,12.0,0.,12.0,0.,12.0
1979-07-04 16:01:01.490 ,1,1,0.,12.0,0.,12.0,0.,12.0,0.,12.0
1979-07-04 16:01:13.490 ,1,0,0.,12.0,0.,12.0,0.,12.0,0.,12.0
1979-07-04 16:01:25.490 ,1,0,0.,12.0,0.,12.0,0.,12.0,0.,12.0
1979-07-04 16:01:37.490 ,2,1,0.,12.0,0.,12.0,0.,12.0,0.,12.0
1979-07-04 16:01:49.490 ,2,1,0.,12.0,0.,12.0,0.,12.0,0.,12.0
1979-07-04 16:02:01.490 ,2,0,0.,12.0,0.,12.0,0.,12.0,0.,12.0
1979-07-04 16:02:13.490 ,2,0,0.,12.0,0.,12.0,0.,12.0,0.,12.0
1979-07-04 16:02:25.490 ,3,1,0.,12.0,0.,12.0,0.,12.0,0.,12.0
1979-07-04 16:02:37.490 ,3,1,0.,12.0,0.,12.0,0.,12.0,0.,12.0
1979-07-04 16:02:49.490 ,3,0,0.,12.0,0.,12.0,0.,12.0,0.,12.0
1979-07-04 16:03:01.490 ,3,0,0.,12.0,0.,12.0,0.,12.0,0.,12.0
1979-07-04 16:03:13.490 ,4,1,0.,12.0,0.,12.0,0.,12.0,0.,12.0
1979-07-04 16:03:25.490 ,4,1,0.,12.0,0.,12.0,0.,12.0,0.,12.0
1979-07-04 16:03:37.490 ,0,0,0.,12.0,0.,12.0,0.,12.0,0.,12.0
1979-07-04 16:03:49.490 ,0,0,0.,12.0,0.,12.0,0.,12.0,0.,12.0
1979-07-04 16:03:59.690 ,0,0,,0,,0,,0,,0
1979-07-04 16:04:11.690 ,0,0,,0,,0,,0,,0
1979-07-04 16:04:01.490 ,5,1,0.,12.0,0.,12.0,0.,12.0,0.,12.0
1979-07-04 16:04:13.490 ,5,1,0.,12.0,0.,12.0,0.,12.0,0.,12.0
1979-07-04 16:04:25.490 ,5,0,0.,12.0,0.,12.0,0.,12.0,0.,12.0
1979-07-04 16:04:37.490 ,5,0,0.,12.0,0.,12.0,0.,12.0,0.,12.0
1979-07-04 16:04:49.490 ,6,1,0.,12.0,0.,12.0,0.,12.0,0.,12.0
1979-07-04 16:05:01.490 ,6,1,0.,12.0,0.,12.0,0.,12.0,0.,12.0
1979-07-04 16:05:13.490 ,6,0,0.,12.0,0.,12.0,0.,12.0,0.,12.0
1979-07-04 16:05:25.490 ,6,0,0.,12.0,0.,12.0,0.,12.0,0.,12.0
1979-07-04 16:05:37.490 ,7,1,0.,12.0,0.,12.0,0.,12.0,0.,12.0
1979-07-04 16:05:49.490 ,7,1,0.,12.0,0.,12.0,0.,12.0,0.,12.0
1979-07-04 16:06:01.490 ,0,0,0.,12.0,0.,12.0,0.,12.0,0.,12.0
1979-07-04 16:06:13.490 ,0,0,0.,12.0,0.,12.0,0.,12.0,0.,12.0
1979-07-04 16:06:27.290 ,7,1,0.,12.0,0.,12.0,0.,12.0,0.,12.0
1979-07-04 16:06:39.290 ,7,1,0.,12.0,0.,12.0,0.,12.0,0.,12.0
1979-07-04 16:06:49.490 ,7,0,0.,12.0,0.,12.0,0.,12.0,0.,12.0
1979-07-04 16:07:01.490 ,7,0,0.,12.0,0.,12.0,0.,12.0,0.,12.0
1979-07-04 16:07:13.490 ,6,1,0.,12.0,0.,12.0,0.,12.0,0.,12.0
1979-07-04 16:07:25.490 ,6,1,0.,12.0,0.,12.0,0.,12.0,0.,12.0
1979-07-04 16:07:37.490 ,6,0,0.,12.0,0.,12.0,0.,12.0,0.,12.0
1979-07-04 16:07:49.490 ,6,0,0.,12.0,0.,12.0,0.,12.0,0.,12.0
1979-07-04 16:08:01.490 ,5,1,0.,12.0,0.,12.0,0.,12.0,0.,12.0
1979-07-04 16:08:13.490 ,5,1,0.,12.0,0.,12.0,0.,12.0,0.,12.0
1979-07-04 16:08:25.490 ,5,0,0.,12.0,0.,12.0,0.,12.0,0.,12.0
1979-07-04 16:08:37.490 ,5,0,0.,12.0,0.,12.0,0.,12.0,0.,12.0
1979-07-04 16:08:49.490 ,4,1,0.,12.0,0.,12.0,0.,12.0,1.,12.0
1979-07-04 16:09:01.490 ,4,1,0.,12.0,0.,12.0,0.,12.0,0.,12.0
1979-07-04 16:09:13.490 ,4,0,0.,12.0,0.,12.0,0.,12.0,0.,12.0
1979-07-04 16:09:25.490 ,4,0,0.,12.0,0.,12.0,0.,12.0,0.,12.0
1979-07-04 16:09:37.490 ,3,1,0.,12.0,0.,12.0,0.,12.0,0.,12.0
1979-07-04 16:09:49.490 ,3,1,0.,12.0,0.,12.0,0.,12.0,0.,12.0
1979-07-04 16:10:01.490 ,3,0,0.,12.0,0.,12.0,0.,12.0,0.,12.0
1979-07-04 16:10:13.490 ,3,0,0.,12.0,0.,12.0,0.,12.0,0.,12.0
1979-07-04 16:10:25.490 ,2,1,0.,12.0,0.,12.0,0.,12.0,0.,12.0
1979-07-04 16:10:37.490 ,2,1,0.,12.0,0.,12.0,0.,12.0,0.,12.0
1979-07-04 16:10:49.490 ,2,0,0.,12.0,0.,12.0,0.,12.0,0.,12.0
1979-07-04 16:11:01.490 ,2,0,0.,12.0,0.,12.0,0.,12.0,0.,12.0
1979-07-04 16:11:13.490 ,1,1,0.,12.0,0.,12.0,0.,12.0,0.,12.0
1979-07-04 16:11:25.490 ,1,1,0.,12.0,0.,12.0,0.,12.0,0.,12.0
1979-07-04 16:11:37.490 ,1,0,0.,12.0,0.,12.0,0.,12.0,0.,12.0
1979-07-04 16:11:49.490 ,1,0,0.,12.0,0.,12.0,0.,12.0,0.,12.0
1979-07-04 16:12:01.490 ,0,1,0.,12.0,0.,12.0,0.,12.0,0.,12.0
1979-07-04 16:12:13.490 ,0,1,1.,12.0,0.,12.0,0.,12.0,0.,12.0
1979-07-04 16:12:25.490 ,0,0,0.,12.0,0.,12.0,0.,12.0,0.,12.0
1979-07-04 16:12:37.490 ,0,0,0.,12.0,0.,12.0,0.,12.0,0.,12.0
1979-07-04 16:12:49.490 ,0,1,0.,12.0,0.,12.0,0.,12.0,0.,12.0
1979-07-04 16:13:01.490 ,0,1,0.,12.0,0.,12.0,0.,12.0,0.,12.0
1979-07-04 16:13:13.490 ,0,0,0.,12.0,0.,12.0,0.,12.0,0.,12.0
1979-07-04 16:13:25.490 ,0,0,0.,12.0,0.,12.0,0.,12.0,0.,12.0
1979-07-04 16:13:37.490 ,1,1,0.,12.0,0.,12.0,0.,12.0,0.,12.0
1979-07-04 16:13:49.490 ,1,1,0.,12.0,0.,12.0,0.,12.0,0.,12.0
1979-07-04 16:14:01.490 ,1,0,0.,12.0,0.,12.0,0.,12.0,0.,12.0
1979-07-04 16:14:13.490 ,1,0,0.,12.0,0.,12.0,0.,12.0,0.,12.0
1979-07-04 16:14:25.490 ,2,1,0.,12.0,0.,12.0,0.,12.0,0.,12.0
1979-07-04 16:14:37.490 ,2,1,0.,12.0,0.,12.0,0.,12.0,0.,12.0
1979-07-04 16:14:49.490 ,2,0,0.,12.0,0.,12.0,0.,12.0,0.,12.0
1979-07-04 16:15:01.490 ,2,0,0.,12.0,0.,12.0,0.,12.0,0.,12.0
1979-07-04 16:15:13.490 ,3,1,0.,12.0,0.,12.0,0.,12.0,0.,12.0
1979-07-04 16:15:25.490 ,3,1,0.,12.0,0.,12.0,0.,12.0,0.,12.0
1979-07-04 16:15:37.490 ,3,0,0.,12.0,0.,12.0,0.,12.0,0.,12.0
1979-07-04 16:15:49.490 ,3,0,1.,12.0,0.,12.0,0.,12.0,0.,12.0
1979-07-04 16:16:01.490 ,4,1,0.,12.0,0.,12.0,0.,12.0,0.,12.0
1979-07-04 16:16:13.490 ,4,1,0.,12.0,0.,12.0,0.,12.0,0.,12.0
1979-07-04 16:16:25.490 ,4,0,0.,12.0,0.,12.0,0.,12.0,0.,12.0
1979-07-04 16:16:37.490 ,4,0,0.,12.0,0.,12.0,0.,12.0,0.,12.0
1979-07-04 16:16:49.490 ,5,1,0.,12.0,0.,12.0,0.,12.0,0.,12.0
1979-07-04 16:17:01.490 ,5,1,0.,12.0,0.,12.0,0.,12.0,0.,12.0
1979-07-04 16:17:13.490 ,5,0,0.,12.0,0.,12.0,0.,12.0,0.,12.0